{"data":{"norad_id":58834,"epoch":"2026-09-20T13:43:16.542336Z","epoch_age_seconds":146313,"freshness":"FRESH","line1":"1 58834U 24017J   26263.57171924  .00001329  00000+0  50473-4 0  9994","line2":"2 58834  53.1626 353.1296 0001665  71.2928 288.8255 15.34397516150254","mean_motion":15.34397516,"eccentricity":0.0001665,"inclination_deg":53.1626,"raan_deg":353.1296,"arg_perigee_deg":71.2928,"mean_anomaly_deg":288.8255,"bstar":5.0473e-5,"rev_number":15025,"period_min":93.84791000926,"perigee_km":461.57162205928,"apogee_km":463.84962431781,"semimajor_km":6840.8476231885,"source":"CELESTRAK","updated_at":"2026-09-21T09:00:33.984125Z"}}